When you browse on this site, cookies collect data to enhance your experience and personalize the content and advertising you see.
Visit our Privacy Policy to learn more. By continuing to use the site, you agree to this use of cookies and data.
  • Em Portugal
  • Lista de países
  • Para 7 dias
  • Temperatura da água
  • Mapa do tempo
  • Widgets de tempo
  • user-avatar
    Iniciar Sessão

    Previsão horária em Vanadzor

    Hoje, 21 Fevereiro, Sexta-feira

    Tempo Temperatura Precipitação Vento Pressão Humidade
    00:00 0°C° 0 mm 1 m/s 630 mmHg 87%
    01:00 0°C° 0 mm 1 m/s 630 mmHg 87%
    02:00 -3°C° 0 mm 2 m/s 630 mmHg 88%
    03:00 -3°C° 0 mm 2 m/s 630 mmHg 88%
    04:00 -3°C° 0 mm 2 m/s 631 mmHg 88%
    05:00 -3°C° 0 mm 2 m/s 631 mmHg 88%
    06:00 -3°C° 0 mm 2 m/s 631 mmHg 88%
    07:00 -2°C° 0 mm 2 m/s 631 mmHg 86%
    08:00 -1°C° 0 mm 2 m/s 632 mmHg 84%
    09:00 -1°C° 0 mm 2 m/s 632 mmHg 82%
    16:00 +2°C° 0 mm 2 m/s 632 mmHg 80%
    17:00 +1°C° 0 mm 2 m/s 632 mmHg 83%
    18:00 -2°C° 0 mm 2 m/s 632 mmHg 87%
    19:00 -2°C° 0 mm 2 m/s 632 mmHg 87%
    20:00 -2°C° 0 mm 2 m/s 632 mmHg 86%
    21:00 -2°C° 0 mm 2 m/s 633 mmHg 86%
    22:00 -2°C° 0 mm 2 m/s 633 mmHg 85%
    23:00 -2°C° 0 mm 2 m/s 633 mmHg 85%

    Amanhã, 22 Fevereiro, Sábado

    Tempo Temperatura Precipitação Vento Pressão Humidade
    00:00 -2°C° 0 mm 2 m/s 633 mmHg 84%
    01:00 -3°C° 0 mm 2 m/s 633 mmHg 84%
    02:00 -3°C° 0 mm 2 m/s 633 mmHg 84%
    03:00 -1°C° 0 mm 1 m/s 633 mmHg 84%
    04:00 -1°C° 0 mm 1 m/s 633 mmHg 84%
    05:00 -1°C° 0 mm 1 m/s 633 mmHg 83%
    06:00 -1°C° 0 mm 1 m/s 633 mmHg 83%
    07:00 0°C° 0 mm 1 m/s 633 mmHg 81%
    08:00 +1°C° 0 mm 1 m/s 634 mmHg 80%
    09:00 +2°C° 0 mm 1 m/s 634 mmHg 79%
    10:00 +2°C° 0 mm 1 m/s 634 mmHg 77%
    11:00 +3°C° 0 mm 1 m/s 634 mmHg 75%
    12:00 +4°C° 0 mm 1 m/s 635 mmHg 74%
    13:00 +4°C° 0 mm 1 m/s 634 mmHg 74%
    14:00 +5°C° 0 mm 1 m/s 634 mmHg 74%
    15:00 +5°C° 0 mm 1 m/s 634 mmHg 74%
    16:00 +4°C° 0 mm 1 m/s 634 mmHg 79%
    17:00 +2°C° 0 mm 1 m/s 633 mmHg 83%
    18:00 +1°C° 0 mm 1 m/s 633 mmHg 88%
    19:00 0°C° 0 mm 1 m/s 633 mmHg 86%
    20:00 0°C° 0 mm 1 m/s 633 mmHg 85%
    21:00 -1°C° 0 mm 1 m/s 633 mmHg 84%
    22:00 -2°C° 0 mm 2 m/s 633 mmHg 84%
    23:00 -2°C° 0 mm 2 m/s 633 mmHg 85%

    Depois de amanhã, 23 Fevereiro, Domingo

    Tempo Temperatura Precipitação Vento Pressão Humidade
    00:00 -2°C° 0 mm 2 m/s 633 mmHg 85%
    01:00 -2°C° 0 mm 2 m/s 633 mmHg 85%
    02:00 -2°C° 0 mm 2 m/s 633 mmHg 85%
    03:00 -2°C° 0 mm 2 m/s 633 mmHg 85%
    04:00 -2°C° 0.1 mm 2 m/s 634 mmHg 85%
    05:00 -2°C° 0.1 mm 2 m/s 634 mmHg 85%
    06:00 -2°C° 0.1 mm 2 m/s 634 mmHg 85%
    07:00 -1°C° 0 mm 2 m/s 634 mmHg 84%
    08:00 +1°C° 0 mm 2 m/s 634 mmHg 82%
    09:00 +1°C° 0 mm 2 m/s 635 mmHg 80%
    10:00 +2°C° 0 mm 2 m/s 635 mmHg 79%
    11:00 +3°C° 0 mm 2 m/s 635 mmHg 77%
    12:00 +4°C° 0 mm 2 m/s 635 mmHg 75%
    13:00 +4°C° 0 mm 2 m/s 634 mmHg 76%
    14:00 +4°C° 0 mm 2 m/s 634 mmHg 77%
    15:00 +4°C° 0 mm 2 m/s 633 mmHg 77%
    16:00 +3°C° 0 mm 2 m/s 633 mmHg 81%
    17:00 +2°C° 0 mm 2 m/s 633 mmHg 84%
    18:00 +1°C° 0 mm 1 m/s 633 mmHg 88%
    19:00 -1°C° 0 mm 2 m/s 633 mmHg 88%
    20:00 -1°C° 0 mm 2 m/s 633 mmHg 88%
    21:00 -2°C° 0 mm 2 m/s 633 mmHg 88%
    22:00 -2°C° 0 mm 2 m/s 633 mmHg 87%
    23:00 -2°C° 0 mm 2 m/s 633 mmHg 86%

    24 Fevereiro, Segunda-feira

    Tempo Temperatura Precipitação Vento Pressão Humidade
    00:00 -2°C° 0 mm 2 m/s 633 mmHg 86%
    01:00 -2°C° 0 mm 2 m/s 633 mmHg 85%
    02:00 -2°C° 0 mm 2 m/s 633 mmHg 85%
    03:00 -2°C° 0 mm 2 m/s 632 mmHg 85%
    04:00 -3°C° 0 mm 2 m/s 632 mmHg 85%
    05:00 -3°C° 0 mm 2 m/s 632 mmHg 85%
    06:00 -3°C° 0 mm 2 m/s 632 mmHg 85%
    07:00 -2°C° 0 mm 2 m/s 632 mmHg 82%
    08:00 -1°C° 0 mm 2 m/s 632 mmHg 80%
    09:00 +1°C° 0 mm 2 m/s 633 mmHg 78%
    10:00 +1°C° 0 mm 2 m/s 632 mmHg 76%
    11:00 +1°C° 0 mm 3 m/s 632 mmHg 74%
    12:00 +2°C° 0 mm 3 m/s 631 mmHg 72%
    13:00 +2°C° 0 mm 3 m/s 631 mmHg 72%
    14:00 +2°C° 0 mm 3 m/s 630 mmHg 73%
    15:00 +2°C° 0 mm 3 m/s 629 mmHg 74%
    16:00 +2°C° 0 mm 2 m/s 629 mmHg 77%
    17:00 +1°C° 0 mm 2 m/s 628 mmHg 81%
    18:00 -1°C° 0 mm 2 m/s 628 mmHg 85%
    19:00 -1°C° 0 mm 2 m/s 628 mmHg 85%
    20:00 -1°C° 0 mm 2 m/s 628 mmHg 85%
    21:00 -1°C° 0 mm 2 m/s 628 mmHg 85%
    22:00 -1°C° 0 mm 2 m/s 627 mmHg 84%
    23:00 -1°C° 0 mm 2 m/s 627 mmHg 84%

    25 Fevereiro, Terça-feira

    Tempo Temperatura Precipitação Vento Pressão Humidade
    00:00 -1°C° 0 mm 3 m/s 627 mmHg 84%
    01:00 -1°C° 0.1 mm 2 m/s 626 mmHg 85%
    02:00 -1°C° 0.1 mm 2 m/s 626 mmHg 86%
    03:00 -1°C° 0.1 mm 2 m/s 625 mmHg 87%
    04:00 -1°C° 0.2 mm 2 m/s 626 mmHg 88%
    05:00 -1°C° 0.2 mm 2 m/s 626 mmHg 88%
    06:00 +1°C° 0.2 mm 1 m/s 626 mmHg 89%
    07:00 -1°C° 1 mm 2 m/s 626 mmHg 86%
    08:00 -1°C° 1 mm 2 m/s 626 mmHg 84%
    09:00 -1°C° 1 mm 2 m/s 626 mmHg 81%
    10:00 -1°C° 0.2 mm 3 m/s 625 mmHg 76%
    11:00 -1°C° 0.2 mm 3 m/s 625 mmHg 71%
    12:00 -1°C° 0.2 mm 3 m/s 624 mmHg 65%
    13:00 -1°C° 0 mm 3 m/s 624 mmHg 63%
    14:00 0°C° 0 mm 3 m/s 624 mmHg 62%
    15:00 +1°C° 0 mm 2 m/s 625 mmHg 60%
    16:00 -2°C° 0 mm 2 m/s 625 mmHg 64%
    17:00 -3°C° 0 mm 2 m/s 625 mmHg 68%
    18:00 -5°C° 0 mm 3 m/s 625 mmHg 73%
    19:00 -6°C° 0 mm 3 m/s 625 mmHg 73%
    20:00 -6°C° 0 mm 3 m/s 626 mmHg 73%
    21:00 -7°C° 0 mm 3 m/s 626 mmHg 72%
    22:00 -7°C° 0 mm 3 m/s 627 mmHg 72%
    23:00 -8°C° 0 mm 3 m/s 627 mmHg 72%

    26 Fevereiro, Quarta-feira

    Tempo Temperatura Precipitação Vento Pressão Humidade
    00:00 -8°C° 0 mm 3 m/s 628 mmHg 72%
    01:00 -9°C° 0 mm 3 m/s 628 mmHg 71%
    02:00 -10°C° 0 mm 3 m/s 628 mmHg 71%
    03:00 -10°C° 0 mm 3 m/s 628 mmHg 71%
    04:00 -12°C° 0 mm 3 m/s 629 mmHg 70%
    05:00 -12°C° 0 mm 3 m/s 629 mmHg 69%
    06:00 -12°C° 0 mm 3 m/s 629 mmHg 68%
    07:00 -10°C° 0 mm 3 m/s 630 mmHg 67%
    08:00 -9°C° 0 mm 2 m/s 631 mmHg 65%
    09:00 -8°C° 0 mm 2 m/s 632 mmHg 63%
    10:00 -6°C° 0 mm 2 m/s 632 mmHg 60%
    11:00 -5°C° 0 mm 2 m/s 632 mmHg 56%
    12:00 -3°C° 0 mm 2 m/s 633 mmHg 53%
    13:00 -3°C° 0 mm 2 m/s 633 mmHg 54%
    14:00 -3°C° 0 mm 2 m/s 633 mmHg 55%
    15:00 -2°C° 0 mm 2 m/s 633 mmHg 56%
    16:00 -3°C° 0 mm 2 m/s 633 mmHg 58%
    17:00 -5°C° 0 mm 2 m/s 633 mmHg 60%
    18:00 -6°C° 0 mm 2 m/s 632 mmHg 63%
    19:00 -6°C° 0 mm 2 m/s 633 mmHg 60%
    20:00 -6°C° 0 mm 2 m/s 633 mmHg 58%
    21:00 -6°C° 0 mm 2 m/s 634 mmHg 55%
    22:00 -6°C° 0 mm 2 m/s 634 mmHg 55%
    23:00 -6°C° 0 mm 2 m/s 634 mmHg 55%
    Mostrar mais